EN

Hourly Weather Dziadkowo

Today, 27 October, Tuesday

Time Temperature Precipitation Wind Pressure Humidity
00:00 +10°C° 0 mm 2 mps 740 mmHg 91%
01:00 +10°C° 0 mm 2 mps 740 mmHg 93%
02:00 +10°C° 0 mm 2 mps 740 mmHg 92%
03:00 +10°C° 0 mm 2 mps 740 mmHg 90%
04:00 +10°C° 0 mm 2 mps 741 mmHg 88%
05:00 +10°C° 0.1 mm 2 mps 741 mmHg 88%
06:00 +10°C° 0.1 mm 2 mps 741 mmHg 87%
07:00 +10°C° 0 mm 2 mps 742 mmHg 82%
08:00 +10°C° 0 mm 2 mps 742 mmHg 80%
09:00 +10°C° 0 mm 2 mps 742 mmHg 78%
10:00 +10°C° 0 mm 2 mps 743 mmHg 76%
11:00 +10°C° 0 mm 2 mps 743 mmHg 74%
12:00 +12°C° 0 mm 2 mps 743 mmHg 72%
13:00 +12°C° 0 mm 2 mps 743 mmHg 70%
14:00 +12°C° 0 mm 2 mps 743 mmHg 73%
15:00 +10°C° 0 mm 2 mps 743 mmHg 75%
16:00 +10°C° 0 mm 2 mps 743 mmHg 78%
17:00 +10°C° 0 mm 2 mps 744 mmHg 78%
18:00 +10°C° 0 mm 2 mps 744 mmHg 79%
19:00 +10°C° 0 mm 2 mps 745 mmHg 80%
20:00 +9°C° 0 mm 2 mps 745 mmHg 81%
21:00 +9°C° 0 mm 2 mps 745 mmHg 83%
22:00 +8°C° 0 mm 2 mps 745 mmHg 84%
23:00 +8°C° 0 mm 2 mps 745 mmHg 84%

Tomorrow, 28 October, Wednesday

Time Temperature Precipitation Wind Pressure Humidity
00:00 +7°C° 0 mm 2 mps 745 mmHg 84%
01:00 +7°C° 0 mm 2 mps 745 mmHg 84%
02:00 +7°C° 0 mm 2 mps 745 mmHg 85%
03:00 +7°C° 0 mm 3 mps 745 mmHg 85%
04:00 +5°C° 0 mm 3 mps 745 mmHg 86%
05:00 +5°C° 0 mm 3 mps 745 mmHg 86%
06:00 +5°C° 0 mm 3 mps 745 mmHg 86%
07:00 +5°C° 0 mm 3 mps 745 mmHg 87%
08:00 +7°C° 0 mm 4 mps 745 mmHg 79%
09:00 +9°C° 0 mm 5 mps 745 mmHg 71%
10:00 +12°C° 0 mm 5 mps 745 mmHg 64%
11:00 +12°C° 0 mm 5 mps 745 mmHg 58%
12:00 +13°C° 0 mm 5 mps 745 mmHg 53%
13:00 +14°C° 0 mm 5 mps 745 mmHg 47%
14:00 +13°C° 0 mm 5 mps 745 mmHg 52%
15:00 +12°C° 0 mm 4 mps 745 mmHg 57%
16:00 +12°C° 0 mm 4 mps 745 mmHg 61%
17:00 +11°C° 0 mm 4 mps 746 mmHg 65%
18:00 +10°C° 0 mm 4 mps 746 mmHg 69%
19:00 +10°C° 0 mm 4 mps 746 mmHg 73%
20:00 +10°C° 0 mm 4 mps 746 mmHg 74%
21:00 +8°C° 0 mm 4 mps 746 mmHg 76%
22:00 +8°C° 0 mm 4 mps 747 mmHg 78%
23:00 +8°C° 0 mm 4 mps 747 mmHg 79%

Day after tomorrow, 29 October, Thursday

Time Temperature Precipitation Wind Pressure Humidity
00:00 +9°C° 0 mm 3 mps 747 mmHg 80%
01:00 +9°C° 0 mm 3 mps 747 mmHg 82%
02:00 +9°C° 0 mm 3 mps 747 mmHg 82%
03:00 +8°C° 0 mm 3 mps 746 mmHg 83%
04:00 +8°C° 0 mm 3 mps 746 mmHg 84%
05:00 +8°C° 0 mm 3 mps 746 mmHg 83%
06:00 +7°C° 0 mm 4 mps 746 mmHg 83%
07:00 +7°C° 0 mm 4 mps 746 mmHg 83%
08:00 +8°C° 0 mm 4 mps 746 mmHg 79%
09:00 +10°C° 0 mm 4 mps 746 mmHg 75%
10:00 +10°C° 0 mm 5 mps 746 mmHg 72%
11:00 +10°C° 0.4 mm 5 mps 746 mmHg 76%
12:00 +9°C° 0.4 mm 5 mps 746 mmHg 79%
13:00 +9°C° 0.4 mm 5 mps 746 mmHg 83%
14:00 +9°C° 0.2 mm 5 mps 746 mmHg 81%
15:00 +9°C° 0.2 mm 5 mps 746 mmHg 78%
16:00 +10°C° 0.2 mm 4 mps 746 mmHg 75%
17:00 +8°C° 0 mm 4 mps 747 mmHg 77%
18:00 +7°C° 0 mm 4 mps 748 mmHg 79%
19:00 +7°C° 0 mm 4 mps 748 mmHg 81%
20:00 +6°C° 0 mm 4 mps 749 mmHg 82%
21:00 +6°C° 0 mm 4 mps 749 mmHg 82%
22:00 +5°C° 0 mm 4 mps 750 mmHg 83%
23:00 +5°C° 0 mm 4 mps 750 mmHg 84%

30 October, Friday

Time Temperature Precipitation Wind Pressure Humidity
00:00 +5°C° 0 mm 4 mps 750 mmHg 85%
01:00 +5°C° 0 mm 4 mps 751 mmHg 86%
02:00 +4°C° 0 mm 4 mps 751 mmHg 87%
03:00 +4°C° 0 mm 3 mps 751 mmHg 88%
04:00 +4°C° 0 mm 3 mps 751 mmHg 90%
05:00 +4°C° 0 mm 3 mps 751 mmHg 89%
06:00 +4°C° 0 mm 3 mps 751 mmHg 88%
07:00 +4°C° 0 mm 3 mps 751 mmHg 88%
08:00 +5°C° 0 mm 3 mps 750 mmHg 83%
09:00 +7°C° 0 mm 3 mps 750 mmHg 79%
10:00 +7°C° 0 mm 4 mps 750 mmHg 75%
11:00 +7°C° 0.7 mm 4 mps 750 mmHg 81%
12:00 +7°C° 0.7 mm 4 mps 749 mmHg 87%
13:00 +7°C° 0.7 mm 4 mps 749 mmHg 93%
14:00 +7°C° 1.1 mm 4 mps 748 mmHg 94%
15:00 +8°C° 1.1 mm 4 mps 748 mmHg 95%
16:00 +8°C° 1.1 mm 4 mps 748 mmHg 96%
17:00 +9°C° 0.8 mm 5 mps 748 mmHg 96%
18:00 +9°C° 0.8 mm 6 mps 748 mmHg 95%
19:00 +10°C° 0.8 mm 6 mps 749 mmHg 94%
20:00 +10°C° 0.5 mm 6 mps 749 mmHg 94%
21:00 +10°C° 0.5 mm 6 mps 749 mmHg 94%
22:00 +10°C° 0.5 mm 6 mps 749 mmHg 94%
23:00 +10°C° 0.2 mm 6 mps 749 mmHg 94%

31 October, Saturday

Time Temperature Precipitation Wind Pressure Humidity
00:00 +10°C° 0.2 mm 5 mps 750 mmHg 95%
01:00 +11°C° 0.2 mm 4 mps 750 mmHg 96%
02:00 +11°C° 0.3 mm 4 mps 750 mmHg 96%
03:00 +11°C° 0.3 mm 3 mps 751 mmHg 97%
04:00 +11°C° 0.3 mm 3 mps 751 mmHg 97%
05:00 +12°C° 0.2 mm 2 mps 751 mmHg 97%
06:00 +10°C° 0.2 mm 2 mps 751 mmHg 97%
07:00 +10°C° 0.2 mm 2 mps 752 mmHg 97%
08:00 +10°C° 0.2 mm 2 mps 752 mmHg 95%
09:00 +10°C° 0.2 mm 2 mps 753 mmHg 94%
10:00 +10°C° 0.2 mm 2 mps 753 mmHg 92%
11:00 +10°C° 0.1 mm 2 mps 753 mmHg 91%
12:00 +10°C° 0.1 mm 2 mps 753 mmHg 90%
13:00 +10°C° 0.1 mm 2 mps 753 mmHg 90%
14:00 +10°C° 0 mm 2 mps 753 mmHg 89%
15:00 +10°C° 0 mm 2 mps 753 mmHg 88%
16:00 +10°C° 0 mm 2 mps 754 mmHg 87%
17:00 +10°C° 0 mm 2 mps 754 mmHg 87%
18:00 +10°C° 0 mm 2 mps 754 mmHg 86%
19:00 +10°C° 0 mm 2 mps 754 mmHg 86%
20:00 +9°C° 0 mm 3 mps 754 mmHg 85%
21:00 +9°C° 0 mm 3 mps 754 mmHg 85%
22:00 +8°C° 0 mm 4 mps 754 mmHg 84%
23:00 +7°C° 0 mm 4 mps 754 mmHg 82%

1 November, Sunday

Time Temperature Precipitation Wind Pressure Humidity
00:00 +7°C° 0 mm 4 mps 754 mmHg 80%
01:00 +6°C° 0 mm 4 mps 754 mmHg 78%
02:00 +6°C° 0 mm 4 mps 754 mmHg 78%
03:00 +5°C° 0 mm 4 mps 754 mmHg 77%
04:00 +5°C° 0 mm 4 mps 754 mmHg 77%
05:00 +5°C° 0 mm 4 mps 754 mmHg 77%
06:00 +5°C° 0 mm 4 mps 754 mmHg 77%
07:00 +5°C° 0 mm 4 mps 754 mmHg 78%
08:00 +6°C° 0 mm 4 mps 754 mmHg 75%
09:00 +7°C° 0 mm 4 mps 754 mmHg 72%
10:00 +8°C° 0 mm 4 mps 754 mmHg 69%
11:00 +10°C° 0 mm 4 mps 754 mmHg 68%
12:00 +11°C° 0 mm 4 mps 754 mmHg 68%
13:00 +13°C° 0 mm 4 mps 753 mmHg 67%
14:00 +12°C° 0 mm 3 mps 753 mmHg 71%
15:00 +12°C° 0 mm 3 mps 753 mmHg 75%
16:00 +11°C° 0 mm 3 mps 753 mmHg 79%
17:00 +10°C° 0 mm 3 mps 753 mmHg 82%
18:00 +10°C° 0 mm 3 mps 753 mmHg 86%
19:00 +9°C° 0 mm 3 mps 753 mmHg 89%
20:00 +9°C° 0 mm 3 mps 753 mmHg 90%
21:00 +9°C° 0 mm 3 mps 753 mmHg 91%
22:00 +9°C° 0 mm 2 mps 753 mmHg 93%
23:00 +8°C° 0 mm 2 mps 753 mmHg 93%
Show more